Benson, United Kingdom

5:35 AM BST on April 27, 2018 (GMT +0100)
Benson Air Base

Weather History for EGUB - November, 2013

Change the Weather History Date:

Wednesday, November 6, 2013

  Actual Average Record
Temperature  
Mean Temperature 52 °F -  
Max Temperature 59 °F 47 °F 63 °F (2015)
Min Temperature 45 °F 37 °F 24 °F (2012)
Degree Days  
Heating Degree Days 13    
Growing Degree Days 2 (Base 50)    
Moisture  
Dew Point 51 °F    
Average Humidity 93    
Maximum Humidity 100    
Minimum Humidity 72    
Precipitation  
Precipitation 0.12 in - - ()
Sea Level Pressure  
Sea Level Pressure 29.49 in    
Wind  
Wind Speed 8 mph ()    
Max Wind Speed 22 mph    
Max Gust Speed 31 mph    
Visibility 5.4 miles    
Events Rain    
Averages and records for this station are not official NWS values.
T = Trace of Precipitation, MM = Missing Value Source: Averaged Metar Reports

Daily Weather History Graph

Daily Weather History Graph

Search for Another Location

Airport or City:

Astronomy

Nov. 06, 2013 Rise Set
Actual Time 7:07 AM GMT 4:28 PM GMT
Civil Twilight 6:31 AM GMT 5:03 PM GMT
Nautical Twilight 5:51 AM GMT 5:43 PM GMT
Astronomical Twilight 5:12 AM GMT 6:22 PM GMT
Moon 10:18 AM GMT (11/6) 7:06 PM GMT (11/6)
Length of Visible Light 10h 32m
Length of Day
9h 20m
Waxing Crescent, 12% of the Moon is Illuminated
Nov 6
Waxing Crescent
Nov 10
First Quarter
Nov 17
Full
Nov 25
Last Quarter
Dec 3
New

Hourly Weather History & Observations

Time (GMT) Temp. Windchill Dew Point Humidity Pressure Visibility Wind Dir Wind Speed Gust Speed Precip Events Conditions
12:00 AM 48 °F - 42 °F 72% 29.52 in 12 mi SW 9.2 mph - -   Partly Cloudy
12:50 AM 48.2 °F - 42.8 °F 82% 29.50 in - SSW 8.1 mph - N/A   Clear
1:50 AM 46.4 °F 41.9 °F 44.6 °F 93% 29.50 in - SSW 9.2 mph - N/A   Clear
2:50 AM 48.2 °F - 44.6 °F 87% 29.50 in 6.2 mi SSW 10.4 mph - N/A   Mostly Cloudy
3:00 AM 48 °F - 45 °F 87% 29.52 in 12 mi SSW 10.4 mph - -   Partly Cloudy
3:50 AM 48.2 °F - 46.4 °F 93% 29.50 in 4.3 mi SW 9.2 mph - N/A Rain Light Rain
4:32 AM 48.2 °F - 46.4 °F 93% 29.53 in 2.2 mi SSW 6.9 mph - N/A   Drizzle
4:50 AM 48.2 °F - 46.4 °F 93% 29.50 in 3.1 mi SSW 9.2 mph - N/A Rain Light Rain
5:50 AM 48.2 °F - 46.4 °F 93% 29.53 in 3.1 mi South 5.8 mph - N/A Rain Light Rain
6:00 AM 47 °F - 47 °F 100% 29.54 in 3 mi South 5.8 mph - - Rain Light Rain
6:50 AM 48.2 °F - 48.2 °F 100% 29.53 in 2.8 mi South 3.5 mph - N/A Rain Rain
7:39 AM 48.2 °F - 46.4 °F 93% 29.50 in 4.3 mi South 5.8 mph - N/A Rain Light Rain
7:50 AM 48.2 °F - 48.2 °F 100% 29.50 in 5.0 mi SSE 5.8 mph - N/A   Mostly Cloudy
8:50 AM 50.0 °F - 48.2 °F 94% 29.50 in 6.2 mi SSE 3.5 mph - N/A   Overcast
9:00 AM 49 °F - 49 °F 98% 29.52 in 7 mi SSE 3.5 mph - -   Partly Cloudy
9:50 AM 50.0 °F - 50.0 °F 100% 29.50 in 4.3 mi South 3.5 mph - N/A Rain Light Rain
10:30 AM 51.8 °F - 50.0 °F 94% 29.50 in 4.3 mi South 3.5 mph - N/A   Overcast
10:50 AM 51.8 °F - 50.0 °F 94% 29.50 in 2.5 mi South 3.5 mph - N/A Rain Light Rain
11:19 AM 51.8 °F - 51.8 °F 100% 29.50 in 1.6 mi South 3.5 mph - N/A Rain Rain
11:50 AM 51.8 °F - 51.8 °F 100% 29.50 in 1.6 mi South 4.6 mph - N/A Rain Rain
12:00 PM 53 °F - 52 °F 95% 29.52 in 2 mi South 4.6 mph - - Rain Heavy Rain
12:50 PM 53.6 °F - 53.6 °F 100% 29.50 in 1.9 mi South 4.6 mph - N/A Rain Rain
1:17 PM 53.6 °F - 53.6 °F 100% 29.47 in 3.1 mi SSE 5.8 mph - N/A Rain Light Rain
1:40 PM 53.6 °F - 53.6 °F 100% 29.47 in 1.9 mi South 3.5 mph - N/A Rain Rain
1:50 PM 55.4 °F - 53.6 °F 94% 29.47 in 2.5 mi South 4.6 mph - N/A   Light Drizzle
2:50 PM 57.2 °F - 55.4 °F 94% 29.47 in 5.0 mi SW 15.0 mph - N/A   Light Drizzle
3:00 PM 58 °F - 56 °F 90% 29.49 in 5 mi SW 15.0 mph - - Rain Light Drizzle
3:50 PM 59.0 °F - 55.4 °F 88% 29.47 in 6.2 mi SSW 16.1 mph - N/A   Mostly Cloudy
4:50 PM 57.2 °F - 55.4 °F 94% 29.47 in 6.2 mi SSW 19.6 mph 31.1 mph N/A   Mostly Cloudy
5:50 PM 57.2 °F - 55.4 °F 94% 29.44 in 6.2 mi SSW 16.1 mph - N/A   Mostly Cloudy
6:00 PM 58 °F - 55 °F 85% 29.47 in 16 mi SSW 16.1 mph - -   Partly Cloudy
6:50 PM 57.2 °F - 55.4 °F 94% 29.44 in 6.2 mi SSW 18.4 mph - N/A   Mostly Cloudy
7:50 PM 59.0 °F - 55.4 °F 88% 29.44 in 6.2 mi SSW 20.7 mph - N/A   Mostly Cloudy
8:50 PM 59.0 °F - 55.4 °F 88% 29.44 in 6.2 mi SSW 21.9 mph - N/A   Mostly Cloudy
9:00 PM 59 °F - 54 °F 80% 29.46 in 16 mi SSW 21.9 mph - -   Partly Cloudy
9:50 PM 57.2 °F - 55.4 °F 94% 29.47 in 6.2 mi SSW 18.4 mph - N/A Rain Light Rain
10:50 PM 57.2 °F - 55.4 °F 94% 29.47 in 6.2 mi SW 15.0 mph - N/A Rain Light Rain
11:50 PM 57.2 °F - 55.4 °F 94% 29.50 in 6.2 mi SW 12.7 mph - N/A Rain Light Rain